Regional Weather Roundup
Issued by NWS Northern Indiana

Home | Current Version | Previous Version | Text Only | Print | Product List | Glossary On
Versions: 1 2 3 4 5 6 7 8 9 10 11 12 13 14 15 16 17 18 19 20 21 22 23 24 25 26 27 28 29 30 31 32 33 34 35 36 37 38 39 40 41 42 43 44 45 46 47 48 49 50
000
ASUS43 KIWX 261801
RWRIWX

KIWX WEATHER ROUNDUP
NATIONAL WEATHER SERVICE NORTHERN INDIANA
200 PM EDT FRI MAY 26 2017

NOTE: "FAIR" INDICATES FEW OR NO CLOUDS BELOW 12,000 FEET WITH NO
SIGNIFICANT WEATHER AND/OR OBSTRUCTIONS TO VISIBILITY.

* THESE STATIONS ARE NOT UNDER NWS QUALITY CONTROL. THEY ALSO MAY NOT
  REPORT WEATHER SUCH AS PRECIPITATION OR FOG.

INZ001>027-261900-
NORTHERN INDIANA

CITY           SKY/WX    TMP DP  RH WIND       PRES   REMARKS
GARY*          PTSUNNY   68  54  60 NE10      29.84R
MICHIGAN CITY* CLOUDY    70  54  56 E3        29.84F
SOUTH BEND     CLOUDY    68  54  60 CALM      29.84F
6HR MIN TEMP:  52; 6HR MAX TEMP:  70;

ELKHART*       CLOUDY    68  50  52 CALM      29.84F
GOSHEN         MOSUNNY   71  52  50 SE3       29.84F
6HR MIN TEMP:  53; 6HR MAX TEMP:  72;

MONTICELLO*    MOSUNNY   71  57  61 SE5       29.84S
6HR MIN TEMP:  54; 6HR MAX TEMP:  72;

ANGOLA*        MOSUNNY   70  63  78 VRB3      29.84F
FORT WAYNE     PTSUNNY   70  55  59 W3        29.86F
6HR MIN TEMP:  55; 6HR MAX TEMP:  72;

PERU/GRISSOM   MOSUNNY   71  58  64 SE9       29.84F
6HR MIN TEMP:  56; 6HR MAX TEMP:  72;


$$
INZ028>050-261900-
CENTRAL INDIANA

CITY           SKY/WX    TMP DP  RH WIND       PRES   REMARKS
LAFAYETTE      PTSUNNY   72  58  61 S7        29.82F
6HR MIN TEMP:  53; 6HR MAX TEMP:  73;

KOKOMO*        PTSUNNY   71  58  63 S8        29.87S
6HR MIN TEMP:  56; 6HR MAX TEMP:  71;

MUNCIE*        CLOUDY    72  56  57 SW7       29.87F
6HR MIN TEMP:  58; 6HR MAX TEMP:  73;

INDIANAPOLIS   MOSUNNY   75  58  55 SW7       29.84F
6HR MIN TEMP:  57; 6HR MAX TEMP:  75;


$$
MIZ043>046-050>051-056>058-064>065-071>073-077>080-261900-
SOUTHWEST LOWER MICHIGAN

CITY           SKY/WX    TMP DP  RH WIND       PRES   REMARKS
BATTLE CREEK   MOSUNNY   69  55  60 VRB5      29.86F
6HR MIN TEMP:  52; 6HR MAX TEMP:  69;

BENTON HARBOR  PTSUNNY   69  52  54 VRB5      29.84F
6HR MIN TEMP:  53; 6HR MAX TEMP:  70;

COLDWATER*     MOSUNNY   67  55  65 CALM      29.85F
6HR MIN TEMP:  53; 6HR MAX TEMP:  68;

HILLSDALE*     MOSUNNY   66  54  63 W6        29.87F
HOLLAND        CLOUDY    68  53  58 W7        29.85F
6HR MIN TEMP:  50; 6HR MAX TEMP:  68;

GRAND RAPIDS   PTSUNNY   68  53  58 S3        29.85F
6HR MIN TEMP:  55; 6HR MAX TEMP:  69;

KALAMAZOO      MOSUNNY   70  51  51 CALM      29.84F
6HR MIN TEMP:  51; 6HR MAX TEMP:  70;

STURGIS*       MOSUNNY   68  55  63 CALM      29.83F
6HR MIN TEMP:  52; 6HR MAX TEMP:  69;

THREE RIVERS*  FAIR      70  52  53 NW6       29.84F
6HR MIN TEMP:  53; 6HR MAX TEMP:  70;


$$
OHZ001>008-015>018-024>025-261900-
NORTHWEST OHIO

CITY           SKY/WX    TMP DP  RH WIND       PRES   REMARKS
DEFIANCE       MOSUNNY   68  55  63 CALM      29.86F
6HR MIN TEMP:  53; 6HR MAX TEMP:  68;

FINDLAY        MOSUNNY   69  54  58 W7        29.88F
6HR MIN TEMP:  55; 6HR MAX TEMP:  69;

TOLEDO EXPRESS CLOUDY    68  55  63 SW12      29.87F
6HR MIN TEMP:  55; 6HR MAX TEMP:  70;

TOLEDO METCALF CLOUDY    68  54  60 W10       29.88F
6HR MIN TEMP:  58; 6HR MAX TEMP:  69;

LIMA           MOSUNNY   67  57  70 NW7       29.88F
6HR MIN TEMP:  54; 6HR MAX TEMP:  67;


$$
AND FOR LAKE MICHIGAN COASTAL AND OPEN LAKE BUOY OBSERVATIONS

STATION/POSITION TEMP    WIND        PRES    VSBY  WAVE
                 AIR SEA DIR/SP/G                  HT/PER
                 (F)     (DEG/KT/KT) (MB)    (MI)  (FT/S)
CALUMET HARBOR    58      50/  6/  9 1010.0R
MICHIGAN CITY     57      40/ 10/ 10   N/A
BURNS HARBOR      60      70/ 10/ 13 1010.8S
SOUTH LAKE BUOY   47 47  160/  2/  2 1011.7          1/ 3
4 MI NW BRIDGMAN  56 56  350/  4/  6 1010.9F         1/ 4
MICHIGAN CITY     55 53   50/  8/  8   N/A           1/ 4

$$
&&




USA.gov is the U.S. government's official web portal to all federal, state and local government web resources and services.